SCP
0 0 -0 -0 0 0 0 0 0 0 0 0 0 0 0 -0 -0 -0 -0 -0 -1 -1 -1 -0 0 -0 -0 -0 0 0 0 0
0 0 0 0 0 0 0 0 0 0 0 0 0 0 0 0 -0 -0 -0 -0 -0 -1 -1 -1 -1 -1 -0 0 0 0 0 0
0 0 0 0 0 0 0 0 0 0 0 0 0 0 -0 -0 -0 -0 -0 -0 -0 -0 -1 -1 -2 -1 -0 0 1 0 0 0
0 0 0 0 0 0 0 0 0 0 0 0 0 0 0 0 0 0 -0 -0 -0 -0 -0 -0 -1 -1 -1 0 0 0 0 0
0 0 0 0 0 0 0 0 0 0 0 0 0 0 0 0 0 0 0 0 -0 -0 -0 -0 -0 -0 0 1 1 1 0 0
0 0 0 0 0 0 0 0 0 0 0 0 0 0 0 -0 0 0 0 -0 -0 0 0 -0 -0 1 1 2 2 2 0 0
0 0 0 0 0 0 0 0 0 0 0 0 0 0 0 0 0 0 0 0 0 0 0 0 0 1 1 2 4 3 1 1
0 0 0 0 0 0 0 0 0 0 0 0 0 0 0 0 0 0 0 0 0 0 0 0 0 1 2 3 3 2 2 1
0 0 0 0 0 0 0 0 0 0 0 0 0 0 0 0 0 0 0 0 0 0 0 0 0 1 2 3 4 2 2 2
0 0 0 0 0 0 0 0 0 0 0 0 0 0 0 0 0 0 0 0 0 0 0 0 1 2 2 3 3 3 2 0
0 0 0 0 0 0 0 0 0 0 0 0 0 0 0 0 0 0 0 0 0 0 0 0 1 2 2 2 2 2 1 0
0 0 0 0 0 0 0 0 0 0 0 0 0 0 0 0 0 0 0 0 0 0 0 0 0 2 1 1 1 1 1 0
0 0 0 0 0 0 0 0 0 0 0 0 0 0 0 0 0 0 0 0 0 0 0 0 1 1 1 1 1 0 0 0
0 0 0 0 0 0 0 0 0 0 0 0 0 0 0 0 0 0 0 0 0 0 0 1 1 1 0 0 0 0 0 0
0 0 0 0 0 0 0 0 0 0 0 0 0 0 0 0 0 1 1 1 0 0 0 1 1 0 0 0 0 0 0 0
0 0 0 0 0 0 0 0 0 0 0 0 0 1 0 0 1 1 1 0 0 1 0 0 0 0 0 0 0 0 0 0
0 0 0 0 0 0 0 0 0 0 0 0 0 0 0 0 0 0 -0 0 -0 -0 0 0 0 0 0 0 0 0 0 0
0 0 0 0 0 0 0 0 0 0 0 0 0 0 0 0 1 0 0 0 0 0 0 0 0 0 0 0 0 0 0 0
0 0 0 0 0 0 0 0 0 0 0 0 0 0 0 0 0 0 0 0 0 0 0 0 0 -0 -0 0 0 0 0 0
Wind_Speed_500mb
11 13 21 9 9 18 12 2 7 8 12 16 12 24 43 57 55 70 84 96 102 101 100 99 88 87 86 84 81 78 70 60
10 11 12 24 15 4 3 12 11 8 8 11 13 16 23 26 51 72 79 87 91 99 104 105 100 89 88 88 89 85 78 70
11 15 18 5 6 7 10 7 14 9 13 16 15 17 35 39 73 75 80 89 97 101 101 112 109 100 94 95 93 91 87 79
27 11 6 14 19 18 13 12 2 9 14 10 18 17 36 48 59 75 87 88 92 99 101 108 115 110 105 105 101 98 93 85
15 8 3 10 12 12 6 8 17 14 12 4 7 12 39 45 60 76 84 82 92 93 98 104 111 117 114 113 109 104 100 91
31 18 11 11 12 16 17 10 12 13 12 8 14 17 19 48 60 77 83 84 90 90 97 104 107 112 112 114 114 110 107 99
36 31 13 14 13 13 18 21 21 17 21 20 26 26 40 67 63 66 74 78 88 96 96 96 98 101 104 109 114 115 114 107
25 20 29 21 32 23 32 6 9 13 14 16 31 12 18 56 62 65 67 69 70 71 80 85 89 95 97 100 107 112 116 114
34 12 13 10 18 21 13 10 10 12 21 13 7 16 37 60 75 79 68 60 58 59 59 57 60 70 86 92 95 102 109 109
22 13 14 12 5 23 21 6 5 10 8 19 26 70 60 55 91 70 52 43 37 29 23 25 33 49 66 80 88 93 97 101
12 13 6 7 10 10 8 5 10 5 3 10 19 28 8 36 47 53 51 41 33 23 12 17 30 39 48 66 76 82 87 94
4 14 11 5 15 36 22 6 14 13 10 11 23 16 5 28 34 37 32 32 26 11 19 20 27 37 46 59 70 76 81 76
7 9 4 11 34 20 14 10 18 16 27 42 13 15 29 21 22 25 25 20 8 13 19 25 31 38 43 51 59 66 68 71
5 8 5 38 14 12 4 11 35 39 52 63 49 43 38 35 27 20 14 15 22 21 39 38 44 49 46 47 49 54 54 62
3 9 8 19 13 26 20 51 56 68 57 60 60 54 48 41 33 27 22 16 30 36 44 54 62 58 48 47 43 43 48 49
4 2 8 15 29 33 42 51 51 51 47 51 47 40 37 34 39 38 35 40 46 43 59 57 60 51 46 44 40 37 36 43
5 6 9 19 38 41 38 28 31 33 35 32 19 19 18 44 59 53 40 47 50 43 50 35 38 30 29 31 37 39 26 27
8 19 25 12 27 36 44 36 38 38 31 29 36 33 14 6 27 23 15 23 34 30 25 22 30 33 32 31 29 27 28 39
18 44 57 42 34 43 47 44 36 39 34 30 31 27 22 21 23 19 26 21 22 15 11 35 26 13 23 20 24 32 34 27
Wind_Direction_500mb
208 190 158 190 156 197 142 351 101 215 276 329 297 213 204 205 198 204 205 210 212 214 215 211 212 211 210 211 214 217 219 220
234 181 222 197 165 91 353 166 233 249 242 219 224 207 204 190 196 206 206 209 212 216 218 217 219 219 217 217 218 218 220 222
143 195 200 141 181 77 128 147 174 224 256 214 227 194 186 195 202 204 202 213 215 220 222 223 223 219 221 221 221 223 222 223
230 229 193 183 209 182 205 246 198 168 259 232 223 201 188 199 198 205 212 217 220 224 225 223 225 222 223 225 224 226 226 223
320 331 180 181 192 176 132 98 186 158 249 269 200 181 199 185 197 209 214 218 223 223 225 229 230 228 226 227 228 228 227 224
226 220 161 186 191 195 159 153 169 209 201 247 214 181 196 214 200 205 211 217 221 223 229 233 235 232 230 232 233 231 230 225
227 217 193 234 227 198 189 192 181 212 194 211 206 198 203 208 212 204 209 212 219 223 226 232 235 235 236 237 236 235 233 227
228 215 200 222 245 223 225 181 115 131 223 218 210 168 162 196 199 204 205 210 213 220 227 232 239 240 241 241 240 240 236 231
229 175 174 223 222 199 171 152 155 147 219 155 168 192 196 203 202 202 202 207 214 220 229 238 249 252 248 246 243 243 242 230
215 108 203 242 286 159 121 109 52 269 239 183 190 202 207 204 192 194 188 184 186 195 216 244 260 260 258 251 249 248 245 233
148 173 176 356 18 319 132 195 192 188 259 192 166 152 115 193 186 173 173 177 181 175 221 259 266 264 264 256 252 248 247 238
142 138 179 275 344 341 305 29 6 61 48 115 136 157 245 177 178 174 172 169 169 207 242 266 287 279 268 258 251 253 247 239
21 98 151 4 324 308 70 238 11 102 115 104 91 112 79 130 143 149 159 177 217 303 289 292 291 295 280 261 252 247 240 232
38 63 11 355 4 83 239 64 99 88 93 95 92 82 70 66 65 54 40 0 309 283 286 278 292 276 267 259 251 241 234 225
164 186 272 319 58 78 91 88 82 79 74 73 70 61 51 36 27 12 359 329 296 303 300 284 262 258 257 248 239 229 220 215
114 316 276 62 76 78 74 74 72 68 69 69 63 49 31 6 359 3 346 332 317 315 310 300 264 247 246 232 217 210 204 201
90 72 161 65 83 79 68 74 54 51 43 27 8 10 335 323 324 309 308 325 320 320 306 276 237 216 197 178 179 174 176 200
158 191 110 109 94 105 88 72 80 69 69 69 65 57 41 311 277 281 286 282 309 325 306 226 184 163 159 137 138 146 166 165
141 109 96 96 96 93 97 92 79 93 86 60 60 48 33 22 3 325 301 290 292 305 204 170 161 155 149 165 178 178 202 211
Wind_Speed_850mb
11 13 21 9 9 18 12 2 7 8 12 16 12 24 43 57 55 70 84 96 102 101 100 99 88 87 86 84 81 78 70 60
10 11 12 24 15 4 3 12 11 8 8 11 13 16 23 26 51 72 79 87 91 99 104 105 100 89 88 88 89 85 78 70
11 15 18 5 6 7 10 7 14 9 13 16 15 17 35 39 73 75 80 89 97 101 101 112 109 100 94 95 93 91 87 79
27 11 6 14 19 18 13 12 2 9 14 10 18 17 36 48 59 75 87 88 92 99 101 108 115 110 105 105 101 98 93 85
15 8 3 10 12 12 6 8 17 14 12 4 7 12 39 45 60 76 84 82 92 93 98 104 111 117 114 113 109 104 100 91
31 18 11 11 12 16 17 10 12 13 12 8 14 17 19 48 60 77 83 84 90 90 97 104 107 112 112 114 114 110 107 99
36 31 13 14 13 13 18 21 21 17 21 20 26 26 40 67 63 66 74 78 88 96 96 96 98 101 104 109 114 115 114 107
25 20 29 21 32 23 32 6 9 13 14 16 31 12 18 56 62 65 67 69 70 71 80 85 89 95 97 100 107 112 116 114
34 12 13 10 18 21 13 10 10 12 21 13 7 16 37 60 75 79 68 60 58 59 59 57 60 70 86 92 95 102 109 109
22 13 14 12 5 23 21 6 5 10 8 19 26 70 60 55 91 70 52 43 37 29 23 25 33 49 66 80 88 93 97 101
12 13 6 7 10 10 8 5 10 5 3 10 19 28 8 36 47 53 51 41 33 23 12 17 30 39 48 66 76 82 87 94
4 14 11 5 15 36 22 6 14 13 10 11 23 16 5 28 34 37 32 32 26 11 19 20 27 37 46 59 70 76 81 76
7 9 4 11 34 20 14 10 18 16 27 42 13 15 29 21 22 25 25 20 8 13 19 25 31 38 43 51 59 66 68 71
5 8 5 38 14 12 4 11 35 39 52 63 49 43 38 35 27 20 14 15 22 21 39 38 44 49 46 47 49 54 54 62
3 9 8 19 13 26 20 51 56 68 57 60 60 54 48 41 33 27 22 16 30 36 44 54 62 58 48 47 43 43 48 49
4 2 8 15 29 33 42 51 51 51 47 51 47 40 37 34 39 38 35 40 46 43 59 57 60 51 46 44 40 37 36 43
5 6 9 19 38 41 38 28 31 33 35 32 19 19 18 44 59 53 40 47 50 43 50 35 38 30 29 31 37 39 26 27
8 19 25 12 27 36 44 36 38 38 31 29 36 33 14 6 27 23 15 23 34 30 25 22 30 33 32 31 29 27 28 39
18 44 57 42 34 43 47 44 36 39 34 30 31 27 22 21 23 19 26 21 22 15 11 35 26 13 23 20 24 32 34 27
Wind_Direction_850mb
208 190 158 190 156 197 142 351 101 215 276 329 297 213 204 205 198 204 205 210 212 214 215 211 212 211 210 211 214 217 219 220
234 181 222 197 165 91 353 166 233 249 242 219 224 207 204 190 196 206 206 209 212 216 218 217 219 219 217 217 218 218 220 222
143 195 200 141 181 77 128 147 174 224 256 214 227 194 186 195 202 204 202 213 215 220 222 223 223 219 221 221 221 223 222 223
230 229 193 183 209 182 205 246 198 168 259 232 223 201 188 199 198 205 212 217 220 224 225 223 225 222 223 225 224 226 226 223
320 331 180 181 192 176 132 98 186 158 249 269 200 181 199 185 197 209 214 218 223 223 225 229 230 228 226 227 228 228 227 224
226 220 161 186 191 195 159 153 169 209 201 247 214 181 196 214 200 205 211 217 221 223 229 233 235 232 230 232 233 231 230 225
227 217 193 234 227 198 189 192 181 212 194 211 206 198 203 208 212 204 209 212 219 223 226 232 235 235 236 237 236 235 233 227
228 215 200 222 245 223 225 181 115 131 223 218 210 168 162 196 199 204 205 210 213 220 227 232 239 240 241 241 240 240 236 231
229 175 174 223 222 199 171 152 155 147 219 155 168 192 196 203 202 202 202 207 214 220 229 238 249 252 248 246 243 243 242 230
215 108 203 242 286 159 121 109 52 269 239 183 190 202 207 204 192 194 188 184 186 195 216 244 260 260 258 251 249 248 245 233
148 173 176 356 18 319 132 195 192 188 259 192 166 152 115 193 186 173 173 177 181 175 221 259 266 264 264 256 252 248 247 238
142 138 179 275 344 341 305 29 6 61 48 115 136 157 245 177 178 174 172 169 169 207 242 266 287 279 268 258 251 253 247 239
21 98 151 4 324 308 70 238 11 102 115 104 91 112 79 130 143 149 159 177 217 303 289 292 291 295 280 261 252 247 240 232
38 63 11 355 4 83 239 64 99 88 93 95 92 82 70 66 65 54 40 0 309 283 286 278 292 276 267 259 251 241 234 225
164 186 272 319 58 78 91 88 82 79 74 73 70 61 51 36 27 12 359 329 296 303 300 284 262 258 257 248 239 229 220 215
114 316 276 62 76 78 74 74 72 68 69 69 63 49 31 6 359 3 346 332 317 315 310 300 264 247 246 232 217 210 204 201
90 72 161 65 83 79 68 74 54 51 43 27 8 10 335 323 324 309 308 325 320 320 306 276 237 216 197 178 179 174 176 200
158 191 110 109 94 105 88 72 80 69 69 69 65 57 41 311 277 281 286 282 309 325 306 226 184 163 159 137 138 146 166 165
141 109 96 96 96 93 97 92 79 93 86 60 60 48 33 22 3 325 301 290 292 305 204 170 161 155 149 165 178 178 202 211